Погода в Тене

Эквадор     0°59′48″N   77°48′52″W
темп.,
°C
ветер,
м/с
пор.,
м/с
влажн.,
%
обл.,
%
осадки,
мм/ч
давл.,
гПа
погр.,
м
17 апреля, сб
сб1701:00+19сз1199100 8.6 101339
04:00+19ссз119898 0.8 101127
07:00+19сз1197100 0.8 101327
10:00+21ююз019479 0.2 101679
13:00+21вюв119599 0.8 1014141
16:00+21в0195100 0.3 1011105
19:00+20зюз0099100 0.8 101418
22:00+19зсз119873 0.1 101534
18 апреля, вс
вс1801:00+19сз119795 0.1 101317
04:00+19сз119782 0.1 101217
07:00+19сз1197100 0.3 101518
10:00+22ю1186100 0.1 1016209
13:00+24зсз017367 0.2 1012341
16:00+25юв227093 0.0 1009376
19:00+20зсз119483 0.3 101112
22:00+19ссз119672 1.4 101418
19 апреля, пн
пн1901:00+19сз119668 2.1 101319
04:00+18сз119440 0.2 101218
07:00+19ссз119554 0.5 101533
10:00+23в129098 1.4 1016348
13:00+22вюв139698 6.7 1014538
16:00+20юз119991 8.6 101278
19:00+19з119975 8.8 101321
22:00+18сз119942 0.0 101515
20 апреля, вт
вт2001:00+18сз119740 0.0 101416
04:00+17сз119675 0.0 101314
07:00+18сз119363 0.0 101528
10:00+27ююв115527 0.0 1016735
13:00+31юв234390 0.1 10122321
16:00+24ссз1177100 0.3 101030
19:00+22ссз118392 0.3 101220
22:00+20зсз119253 0.7 101518
21 апреля, ср
ср2101:00+19зсз119311 0.9 101416
04:00+18сз11935 0.0 101316
07:00+19зсз11918 0.0 101537
10:00+28ююв11565 0.0 1014867
13:00+30юв224584 0.1 10102105
16:00+23сз2483100 0.4 1009127
19:00+22сз118597 0.5 101121
22:00+21сз118497 0.1 101332